Location: Chuathbaluk
(61.5726°N, 159.2454°W)
Time: 06:01:44
(UTC+00:00)

Transit 2A - Visible Passes

Search period start: 27 November 2020 00:00
Search period end: 07 December 2020 00:00
Orbit: 595 x 964 km, 66.7° (Epoch: 26 November)

Date Brightness Start Highest point End Pass type
(mag) Time Alt. Az. Time Alt. Az. Time Alt. Az.
27 Nov 8.0 03:16:36 10° SE 03:19:39 14° ESE 03:21:23 13° E visible
27 Nov 6.6 04:55:51 10° SSW 05:01:42 44° SE 05:01:53 44° ESE visible
27 Nov 7.4 06:38:35 10° WSW 06:42:23 39° WSW 06:42:23 39° WSW visible
27 Nov 9.0 08:22:42 10° W 08:22:54 11° W 08:22:54 11° W visible
28 Nov 8.2 02:44:37 10° ESE 02:45:50 11° ESE 02:47:03 10° E visible
28 Nov 6.9 04:22:05 10° S 04:27:40 36° ESE 04:28:56 32° E visible
28 Nov 6.6 06:04:21 10° SW 06:09:26 61° SW 06:09:26 61° SW visible
28 Nov 8.6 07:48:20 10° W 07:49:56 18° W 07:49:56 18° W visible
29 Nov 7.3 03:48:26 10° S 03:53:40 29° ESE 03:55:56 23° E visible
29 Nov 6.1 05:30:12 10° SW 05:36:23 77° SE 05:36:26 77° SE visible
29 Nov 8.0 07:13:58 10° W 07:16:56 29° W 07:16:56 29° W visible
30 Nov 7.6 03:14:57 10° SSE 03:19:43 24° ESE 03:22:52 16° ENE visible
30 Nov 6.3 04:56:07 10° SW 05:02:14 66° SE 05:03:22 54° E visible
30 Nov 7.3 06:39:37 10° WSW 06:43:52 43° W 06:43:52 43° W visible
30 Nov 9.0 08:23:53 10° WNW 08:24:22 12° WNW 08:24:22 12° WNW visible
01 Dec 7.9 02:41:41 10° SSE 02:45:48 19° ESE 02:49:46 10° ENE visible
01 Dec 6.5 04:22:06 10° SSW 04:28:07 55° SE 04:30:16 36° ENE visible
01 Dec 6.6 06:05:18 10° WSW 06:10:45 64° WNW 06:10:45 64° WNW visible
01 Dec 8.5 07:49:31 10° WNW 07:51:15 19° WNW 07:51:15 19° WNW visible
02 Dec 6.7 03:48:11 10° SSW 03:54:02 45° SE 03:57:07 25° ENE visible
02 Dec 6.2 05:31:01 10° WSW 05:37:10 79° NNW 05:37:37 73° NNE visible
02 Dec 8.0 07:15:09 10° W 07:18:06 28° WNW 07:18:06 28° WNW visible
03 Dec 7.0 03:14:23 10° S 03:20:00 37° ESE 03:23:57 17° ENE visible
03 Dec 6.2 04:56:47 10° SW 05:02:56 89° NW 05:04:26 53° NE visible
03 Dec 7.4 06:40:48 10° W 06:44:56 40° WNW 06:44:56 40° WNW visible
03 Dec 9.0 08:24:57 10° WNW 08:25:25 12° WNW 08:25:25 12° WNW visible
04 Dec 7.4 02:40:43 10° S 02:45:59 30° ESE 02:50:45 11° ENE visible
04 Dec 6.2 04:22:36 10° SW 04:28:45 80° SE 04:31:14 36° ENE visible
04 Dec 6.7 06:06:25 10° W 06:11:43 54° NW 06:11:43 54° NW visible
04 Dec 8.6 07:50:39 10° WNW 07:52:12 18° WNW 07:52:12 18° WNW visible
05 Dec 6.3 03:48:29 10° SW 03:54:35 68° SE 03:58:01 25° ENE visible
05 Dec 6.4 05:32:04 10° WSW 05:38:03 62° NNW 05:38:30 60° N visible
05 Dec 8.1 07:16:18 10° WNW 07:18:59 26° WNW 07:18:59 26° WNW visible
06 Dec 6.5 03:14:27 10° SSW 03:20:28 57° SE 03:24:46 17° ENE visible
06 Dec 6.4 04:57:43 10° WSW 05:03:46 68° NNW 05:05:15 49° NE visible
06 Dec 7.5 06:41:58 10° WNW 06:45:44 36° NW 06:45:44 36° NW visible
06 Dec 9.0 08:25:55 10° WNW 08:26:13 11° WNW 08:26:13 11° WNW visible
